TimeCDT,TemperatureF,Dew PointF,Humidity,Sea Level PressureIn,VisibilityMPH,Wind Direction,Wind SpeedMPH,Gust SpeedMPH,PrecipitationIn,Events,Conditions,WindDirDegrees,DateUTC
12:53 AM,26.1,16.0,66,30.18,10.0,WNW,4.6,-,N/A,,Clear,290,2013-04-02 05:53:00
1:53 AM,25.0,16.0,69,30.18,10.0,West,8.1,-,N/A,,Clear,270,2013-04-02 06:53:00
2:53 AM,25.0,16.0,69,30.18,10.0,West,9.2,-,N/A,,Clear,270,2013-04-02 07:53:00
3:53 AM,25.0,15.1,66,30.17,10.0,WNW,9.2,-,N/A,,Clear,290,2013-04-02 08:53:00
4:53 AM,24.1,15.1,69,30.18,10.0,WNW,9.2,-,N/A,,Clear,290,2013-04-02 09:53:00
5:53 AM,24.1,15.1,69,30.19,10.0,WNW,9.2,-,N/A,,Clear,290,2013-04-02 10:53:00
6:53 AM,23.0,15.1,72,30.21,10.0,WNW,8.1,-,N/A,,Clear,290,2013-04-02 11:53:00
7:53 AM,26.1,16.0,66,30.23,10.0,WNW,8.1,-,N/A,,Clear,290,2013-04-02 12:53:00
8:53 AM,28.0,16.0,61,30.24,10.0,WNW,11.5,-,N/A,,Clear,300,2013-04-02 13:53:00
9:53 AM,28.9,17.1,61,30.25,10.0,NW,10.4,-,N/A,,Clear,310,2013-04-02 14:53:00
10:53 AM,30.9,17.1,57,30.25,10.0,WNW,10.4,-,N/A,,Clear,300,2013-04-02 15:53:00
11:53 AM,34.0,17.1,50,30.25,10.0,West,12.7,18.4,N/A,,Clear,280,2013-04-02 16:53:00
12:53 PM,34.0,15.1,46,30.24,10.0,WNW,17.3,23.0,N/A,,Clear,300,2013-04-02 17:53:00
1:53 PM,35.1,17.1,48,30.23,10.0,NW,16.1,23.0,N/A,,Partly Cloudy,310,2013-04-02 18:53:00
2:53 PM,35.1,17.1,48,30.23,10.0,West,11.5,21.9,N/A,,Clear,280,2013-04-02 19:53:00
3:53 PM,36.0,16.0,44,30.23,10.0,NW,16.1,20.7,N/A,,Clear,310,2013-04-02 20:53:00
4:53 PM,36.0,16.0,44,30.24,10.0,NW,12.7,-,N/A,,Clear,310,2013-04-02 21:53:00
5:53 PM,35.1,15.1,44,30.25,10.0,WNW,12.7,18.4,N/A,,Clear,300,2013-04-02 22:53:00
6:53 PM,34.0,15.1,46,30.26,10.0,WNW,10.4,-,N/A,,Clear,300,2013-04-02 23:53:00
7:53 PM,30.9,16.0,54,30.27,10.0,West,8.1,-,N/A,,Clear,280,2013-04-03 00:53:00
8:53 PM,30.0,18.0,61,30.29,10.0,West,6.9,-,N/A,,Clear,270,2013-04-03 01:53:00
9:53 PM,30.0,17.1,59,30.30,10.0,WNW,8.1,-,N/A,,Clear,290,2013-04-03 02:53:00
10:53 PM,30.0,18.0,61,30.31,10.0,WNW,6.9,-,N/A,,Clear,290,2013-04-03 03:53:00
11:53 PM,28.9,17.1,61,30.31,10.0,WNW,8.1,-,N/A,,Clear,300,2013-04-03 04:53:00